This is the latest recevied weather packets stored in our database for station/object KD8DNS. If no packets are shown the sender has not sent any weather packets the latest 10 day(s).
| Time | Temp. | Humidity | Pressure | Rain* | Wind** | Luminosity | Snow |
|---|---|---|---|---|---|---|---|
| 1787850631 | 28.89° C | 65% | 1018 hPa | 0 mm | - | 489 W/m² | - |
| 1787850331 | 29.44° C | 67% | 1018.2 hPa | 0 mm | - | 206 W/m² | - |
| 1787850021 | 28.89° C | 68% | 1017.9 hPa | 0 mm | - | 794 W/m² | - |
| 1787849720 | 28.89° C | 68% | 1018.1 hPa | 0 mm | - | 224 W/m² | - |
| 1787849410 | 28.33° C | 69% | 1018.1 hPa | 0 mm | - | 209 W/m² | - |
| 1787849109 | 29.44° C | 65% | 1018.2 hPa | 0 mm | - | 212 W/m² | - |
| 1787848803 | 29.44° C | 65% | 1018 hPa | 0 mm | - | 743 W/m² | - |
| 1787848503 | 29.44° C | 64% | 1018.4 hPa | 0 mm | - | 718 W/m² | - |
| 1787848197 | 28.89° C | 66% | 1018.1 hPa | 0 mm | - | 667 W/m² | - |
| 1787847897 | 28.33° C | 68% | 1018.3 hPa | 0 mm | - | 671 W/m² | - |
| 1787847591 | 28.89° C | 67% | 1018.2 hPa | 0 mm | - | 696 W/m² | - |
| 1787847286 | 28.33° C | 70% | 1018.3 hPa | 0 mm | - | 671 W/m² | - |
| 1787846983 | 28.33° C | 69% | 1018.4 hPa | 0 mm | - | 708 W/m² | - |
| 1787846683 | 28.33° C | 69% | 1018.2 hPa | 0 mm | - | 668 W/m² | - |
| 1787846378 | 27.78° C | 70% | 1018.3 hPa | 0 mm | - | 625 W/m² | - |
| 1787846074 | 27.22° C | 72% | 1018.5 hPa | 0 mm | - | 459 W/m² | - |
| 1787845770 | 26.67° C | 73% | 1018.3 hPa | 0 mm | - | 583 W/m² | - |
| 1787845464 | 26.67° C | 73% | 1018.4 hPa | 0 mm | - | 576 W/m² | - |
| 1787845161 | 26.67° C | 73% | 1018.1 hPa | 0 mm | - | 271 W/m² | - |
| 1787844856 | 27.22° C | 71% | 1018.2 hPa | 0 mm | - | 179 W/m² | - |
| 1787844555 | 26.67° C | 72% | 1018.3 hPa | 0 mm | - | 149 W/m² | - |
| 1787844250 | 26.11° C | 76% | 1018.1 hPa | 0 mm | - | 551 W/m² | - |
| 1787843949 | 25.56° C | 77% | 1018.3 hPa | 0 mm | - | 557 W/m² | - |
| 1787843644 | 25.56° C | 79% | 1018.3 hPa | 0 mm | - | 113 W/m² | - |
| 1787843341 | 25.56° C | 78% | 1018.2 hPa | 0 mm | - | 205 W/m² | - |
* Rain latest hour (hover to see other rain measurements)
** Current wind speed in m/s (hover to see current wind gust speed)